Location: *
(2.5500°S, 65.9667°W)
Time: 13:57:56
(UTC+00:00)

XW-2D - Pass Details

Date: 05 July 2022
Orbit: 495 x 515 km, 97.5° (Epoch: 15 August)

Event Time Altitude Azimuth Distance (km) Brightness Sun altitude
Rises 09:49:06 0° 19° (NNE) 2,607 ? -10.1°
Reaches altitude 10° 09:51:13 10° 24° (NNE) 1,722 ? -9.6°
Maximum altitude 09:54:51 52° 101° (ESE) 632 ? -8.7°
Drops below altitude 10° 09:58:27 10° 178° (S) 1,720 ? -7.9°
Sets 10:00:34 0° 183° (S) 2,603 ? -7.4°
